Regional Weather Roundup
Issued by NWS Goodland, KS

Home | Current Version | Previous Version | Text Only | Print | Product List | Glossary On
Versions: 1 2 3 4 5 6 7 8 9 10 11 12 13 14 15 16 17 18 19 20 21 22 23 24 25 26 27 28 29 30 31 32 33 34 35 36 37 38 39 40 41 42 43 44 45 46 47 48 49 50
806
ASUS43 KGLD 200908
RWRGLD

GOODLAND FORECAST AREA HOURLY WEATHER ROUNDUP
NATIONAL WEATHER SERVICE GOODLAND KS
200 AM MST MON NOV 20 2017

...OFFICIAL OBSERVATIONS...

CITY           SKY/WX    TMP DP  RH WIND       PRES   REMARKS
GOODLAND KS    CLOUDY    33  14  45 W9        29.86F
HILL CITY KS   CLOUDY    33  23  66 W6        29.85F
IMPERIAL NEB   CLOUDY    26  17  68 W9        29.82F
MCCOOK NEB     CLEAR     31  22  69 W13       29.83F
AKRON CO       CLOUDY    38  11  32 SW15      29.86F
BURLINGTON CO  CLOUDY    27  15  61 W7        29.88F
LIMON CO       CLOUDY    19  11  70 N7        29.92F
$$

...UNOFFICIAL OBSERVATIONS...

CITY           SKY/WX    TMP DP  RH WIND       PRES   REMARKS
COLBY KS       CLOUDY    30  23  74 W7        29.86F
LENORA KS        N/A     36  32  85 SW10        N/A
NORTON KS      CLEAR     28  19  69 W10       29.85  WCI  19
SHARON SPRINGS   N/A     29  18  62 W7          N/A
TRENTON NEB      N/A     37  32  82 W5          N/A
KIT CARSON CO    N/A     32  16  50 CALM        N/A
YUMA CO        FAIR      30  14  51 W7        29.85F
$$




USA.gov is the U.S. government's official web portal to all federal, state and local government web resources and services.